Regional Weather Roundup
Issued by NWS

Home | Current Version | Previous Version | Graphics & Text | Print | Product List | Glossary On
Versions: 1 2 3 4 5 6 7 8 9 10 11 12 13 14 15 16 17 18 19 20 21 22 23 24 25 26 27 28 29 30 31 32 33 34 35 36 37 38 39 40 41 42 43 44 45 46 47 48 49 50
000
ASUS43 KFSD 241110
RWRSD

WEATHER ROUNDUP FOR SOUTH DAKOTA
NATIONAL WEATHER SERVICE SIOUX FALLS SD
600 AM CDT THU JUL 24 2014

NOTE: "FAIR" INDICATES FEW OR NO CLOUDS BELOW 12,000 FEET WITH NO
SIGNIFICANT WEATHER AND/OR OBSTRUCTIONS TO VISIBILITY.


SDZ001>005-009-010-012>017-241200-
NORTHWEST AND NORTH CENTRAL SOUTH DAKOTA

CITY           SKY/WX    TMP DP  RH WIND       PRES   REMARKS
BUFFALO          N/A     70  56  61 S6        29.76R
FAITH            N/A     66  58  75 SE21G28   29.88F
MOBRIDGE       MOCLDY    68  58  70 SE22G29   29.93F
$$

SDZ012>016-024>037-041>051-057-063-072>074-241200-
SOUTHWEST AND SOUTH CENTRAL SOUTH DAKOTA

CITY           SKY/WX    TMP DP  RH WIND       PRES   REMARKS
RAPID CTY ARPT PTCLDY    65  63  93 SE9       29.89F
PIERRE         CLOUDY    70  59  68 SE26G35   29.92F
CUSTER         PTCLDY    63  59  87 W5        30.07F
ELLSWORTH AFB  PTCLDY    69  65  86 S7        29.88F
PHILIP         MOCLDY    68  59  73 SE10      29.89F
PINE RIDGE     MOCLDY    72  64  76 S23G40    29.92F
WINNER         FAIR      68  58  70 SE15      29.99F
$$

SDZ004>011-016>023-039-040-241200-
NORTHEAST SOUTH DAKOTA

CITY           SKY/WX    TMP DP  RH WIND       PRES   REMARKS
ABERDEEN       PTCLDY    60  56  86 SE9       30.07F
WATERTOWN      CLEAR     61  52  72 SE6       30.10F
SISSETON         N/A     57  56  96 S3        30.10F
$$

SDZ017-020-022-023-036>040-048>070-241200-
SOUTHEAST SOUTH DAKOTA

CITY           SKY/WX    TMP DP  RH WIND       PRES   REMARKS
SIOUX FALLS    PTCLDY    65  56  72 SE6       30.11F
HURON          MOCLDY    65  55  70 SE10      30.08R THUNDER
CHAMBERLAIN    MOCLDY    65  59  81 SE9       30.01F
MITCHELL       TSTM      64  61  90 E9        30.08R
YANKTON        MOCLDY    61  59  94 E6        30.09F
$$

ABBREVIATIONS USED IN REMARKS
   TC - TEMPERATURE IN CELSIUS
  WCI - WIND CHILL INDEX
   HX - HEAT INDEX
  VSB - VISIBILITY




USA.gov is the U.S. government's official web portal to all federal, state and local government web resources and services.